QPF
0.15 0.18 0.18 0.18 0.17 0.13 0.12 0.13 0.14 0.12 0.10 0.06 0.02 0.02 0.02 0.03 0.01 0.01 0.01 0.00 0.00 0.00 0.00 0.00 0.00 0.00 0.00 0.01 0.01 0.01 0.02 0.02 0.03 0.04 0.04 0.06 0.08 0.10
0.09 0.13 0.16 0.14 0.15 0.15 0.14 0.13 0.14 0.14 0.12 0.09 0.05 0.04 0.04 0.02 0.01 0.02 0.01 0.00 0.00 0.00 0.00 0.00 0.00 0.00 0.00 0.00 0.01 0.01 0.01 0.02 0.02 0.03 0.03 0.03 0.03 0.04
0.07 0.09 0.11 0.14 0.16 0.15 0.16 0.18 0.17 0.16 0.14 0.12 0.10 0.11 0.11 0.08 0.04 0.03 0.01 0.00 0.00 0.00 0.00 0.00 0.00 0.00 0.00 0.00 0.00 0.00 0.01 0.01 0.02 0.02 0.02 0.02 0.03 0.04
0.03 0.05 0.06 0.09 0.13 0.16 0.16 0.18 0.20 0.20 0.16 0.16 0.17 0.18 0.18 0.16 0.12 0.07 0.03 0.01 0.00 0.00 0.00 0.00 0.00 0.00 0.00 0.00 0.00 0.01 0.01 0.01 0.01 0.02 0.02 0.03 0.03 0.04
0.01 0.02 0.03 0.05 0.07 0.11 0.15 0.16 0.17 0.19 0.19 0.17 0.16 0.18 0.18 0.18 0.15 0.10 0.06 0.04 0.00 0.00 0.00 0.00 0.00 0.00 0.00 0.00 0.00 0.00 0.00 0.00 0.00 0.01 0.01 0.02 0.03 0.04
0.01 0.01 0.01 0.03 0.05 0.07 0.09 0.13 0.16 0.17 0.18 0.18 0.18 0.20 0.19 0.19 0.16 0.11 0.08 0.05 0.01 0.00 0.00 0.00 0.00 0.00 0.00 0.00 0.00 0.00 0.00 0.00 0.00 0.00 0.01 0.01 0.02 0.03
0.02 0.02 0.01 0.01 0.02 0.04 0.06 0.08 0.12 0.15 0.16 0.16 0.17 0.18 0.18 0.18 0.15 0.11 0.09 0.06 0.04 0.01 0.01 0.00 0.00 0.00 0.00 0.00 0.00 0.00 0.00 0.00 0.00 0.00 0.01 0.01 0.02 0.03
0.04 0.03 0.02 0.01 0.01 0.01 0.03 0.06 0.08 0.10 0.13 0.16 0.15 0.14 0.16 0.17 0.18 0.16 0.10 0.05 0.04 0.02 0.01 0.00 0.00 0.00 0.00 0.00 0.00 0.00 0.00 0.01 0.01 0.01 0.01 0.01 0.02 0.03
0.06 0.06 0.03 0.01 0.01 0.01 0.01 0.03 0.06 0.07 0.08 0.11 0.13 0.11 0.13 0.17 0.19 0.18 0.12 0.07 0.05 0.03 0.02 0.01 0.01 0.00 0.00 0.00 0.00 0.00 0.01 0.01 0.01 0.01 0.01 0.01 0.02 0.04
0.05 0.06 0.05 0.03 0.02 0.03 0.03 0.02 0.03 0.05 0.07 0.07 0.09 0.10 0.11 0.15 0.18 0.20 0.21 0.15 0.08 0.05 0.03 0.02 0.01 0.00 0.00 0.00 0.00 0.00 0.01 0.01 0.02 0.02 0.02 0.03 0.04 0.04
0.04 0.04 0.05 0.05 0.03 0.01 0.03 0.04 0.04 0.04 0.04 0.06 0.06 0.08 0.11 0.13 0.17 0.18 0.20 0.18 0.10 0.04 0.03 0.02 0.01 0.01 0.00 0.00 0.00 0.00 0.01 0.01 0.01 0.01 0.02 0.03 0.05 0.04
0.06 0.06 0.03 0.03 0.03 0.01 0.02 0.04 0.04 0.04 0.05 0.05 0.05 0.06 0.07 0.09 0.12 0.15 0.14 0.13 0.10 0.06 0.03 0.02 0.01 0.00 0.01 0.00 0.00 0.00 0.00 0.01 0.01 0.02 0.02 0.02 0.02 0.01
0.06 0.06 0.06 0.03 0.01 0.01 0.01 0.03 0.03 0.04 0.07 0.08 0.07 0.07 0.09 0.09 0.08 0.11 0.13 0.12 0.09 0.06 0.04 0.02 0.01 0.00 0.00 0.00 0.00 0.00 0.00 0.00 0.01 0.02 0.03 0.02 0.01 0.01
0.09 0.09 0.09 0.05 0.02 0.01 0.00 0.01 0.01 0.02 0.04 0.07 0.08 0.07 0.08 0.09 0.08 0.09 0.11 0.12 0.11 0.08 0.05 0.04 0.02 0.01 0.00 0.00 0.00 0.00 0.00 0.00 0.00 0.00 0.01 0.01 0.01 0.01
0.08 0.08 0.08 0.05 0.02 0.01 0.00 0.00 0.00 0.01 0.03 0.05 0.06 0.06 0.07 0.08 0.11 0.12 0.13 0.15 0.13 0.10 0.07 0.06 0.04 0.02 0.01 0.00 0.00 0.00 0.00 0.00 0.00 0.00 0.00 0.00 0.01 0.01
0.03 0.05 0.04 0.03 0.02 0.02 0.01 0.00 0.00 0.01 0.03 0.05 0.06 0.07 0.09 0.11 0.12 0.13 0.14 0.14 0.11 0.09 0.08 0.07 0.06 0.05 0.02 0.01 0.00 0.00 0.00 0.00 0.00 0.00 0.00 0.00 0.00 0.00
0.06 0.09 0.07 0.06 0.04 0.03 0.04 0.03 0.01 0.01 0.02 0.06 0.08 0.09 0.10 0.11 0.14 0.14 0.13 0.12 0.10 0.08 0.08 0.07 0.08 0.06 0.05 0.03 0.01 0.01 0.01 0.00 0.01 0.01 0.00 0.00 0.00 0.00
0.05 0.11 0.11 0.10 0.08 0.06 0.05 0.05 0.04 0.03 0.04 0.06 0.10 0.11 0.11 0.12 0.14 0.15 0.13 0.12 0.09 0.09 0.07 0.06 0.07 0.07 0.06 0.05 0.03 0.02 0.01 0.01 0.01 0.00 0.00 0.00 0.00 0.00
0.04 0.09 0.12 0.11 0.10 0.10 0.09 0.08 0.07 0.07 0.08 0.09 0.10 0.12 0.12 0.13 0.14 0.14 0.12 0.12 0.11 0.10 0.08 0.06 0.06 0.05 0.04 0.04 0.03 0.02 0.01 0.01 0.01 0.01 0.00 0.00 0.00 0.00
0.05 0.08 0.11 0.12 0.11 0.11 0.11 0.10 0.10 0.11 0.12 0.12 0.12 0.13 0.13 0.14 0.15 0.14 0.12 0.11 0.11 0.10 0.08 0.06 0.05 0.05 0.04 0.03 0.02 0.01 0.01 0.01 0.01 0.01 0.01 0.00 0.00 0.00
0.07 0.08 0.10 0.11 0.11 0.11 0.12 0.12 0.13 0.13 0.13 0.13 0.13 0.13 0.13 0.13 0.15 0.14 0.13 0.15 0.13 0.10 0.08 0.06 0.05 0.06 0.05 0.05 0.04 0.03 0.01 0.01 0.01 0.01 0.01 0.01 0.00 0.00
0.09 0.09 0.10 0.10 0.11 0.11 0.11 0.11 0.12 0.12 0.13 0.13 0.13 0.15 0.14 0.13 0.13 0.14 0.14 0.15 0.14 0.11 0.09 0.07 0.07 0.07 0.06 0.05 0.04 0.03 0.02 0.01 0.01 0.01 0.00 0.00 0.00 0.00
0.10 0.10 0.10 0.09 0.10 0.10 0.09 0.10 0.11 0.11 0.12 0.13 0.14 0.16 0.16 0.14 0.13 0.14 0.16 0.16 0.15 0.13 0.12 0.10 0.07 0.07 0.05 0.04 0.03 0.03 0.02 0.01 0.01 0.00 0.00 0.00 0.00 0.00
MSLP
1008.63 1008.46 1008.32 1008.20 1008.13 1008.10 1008.11 1008.16 1008.25 1008.36 1008.52 1008.71 1008.94 1009.20 1009.50 1009.83 1010.20 1010.58 1010.98 1011.38 1011.78 1012.17 1012.54 1012.88 1013.21 1013.51 1013.80 1014.09 1014.38 1014.66 1014.94 1015.20 1015.42 1015.59 1015.69 1015.71 1015.67 1015.57
1008.65 1008.54 1008.45 1008.37 1008.32 1008.31 1008.32 1008.37 1008.43 1008.53 1008.66 1008.82 1009.03 1009.28 1009.58 1009.92 1010.31 1010.73 1011.16 1011.60 1012.02 1012.41 1012.77 1013.08 1013.35 1013.59 1013.81 1014.03 1014.25 1014.47 1014.69 1014.90 1015.09 1015.22 1015.28 1015.26 1015.16 1015.00
1008.44 1008.42 1008.41 1008.40 1008.42 1008.45 1008.50 1008.56 1008.64 1008.73 1008.84 1008.99 1009.18 1009.41 1009.71 1010.06 1010.47 1010.91 1011.37 1011.83 1012.27 1012.66 1013.01 1013.29 1013.52 1013.70 1013.86 1014.01 1014.17 1014.33 1014.51 1014.68 1014.82 1014.92 1014.95 1014.89 1014.75 1014.55
1008.00 1008.08 1008.17 1008.26 1008.37 1008.49 1008.60 1008.71 1008.81 1008.92 1009.04 1009.18 1009.36 1009.58 1009.87 1010.23 1010.64 1011.09 1011.56 1012.03 1012.48 1012.87 1013.20 1013.47 1013.67 1013.82 1013.94 1014.04 1014.15 1014.27 1014.41 1014.55 1014.66 1014.73 1014.74 1014.66 1014.50 1014.26
1007.37 1007.55 1007.74 1007.95 1008.16 1008.38 1008.58 1008.76 1008.92 1009.06 1009.20 1009.34 1009.52 1009.74 1010.02 1010.36 1010.76 1011.21 1011.68 1012.15 1012.60 1012.99 1013.32 1013.59 1013.78 1013.92 1014.03 1014.12 1014.21 1014.31 1014.43 1014.55 1014.65 1014.71 1014.71 1014.62 1014.45 1014.20
1006.62 1006.87 1007.17 1007.48 1007.80 1008.12 1008.41 1008.68 1008.90 1009.09 1009.27 1009.43 1009.61 1009.83 1010.10 1010.42 1010.80 1011.23 1011.69 1012.15 1012.59 1012.99 1013.34 1013.61 1013.83 1014.00 1014.13 1014.24 1014.35 1014.47 1014.59 1014.71 1014.81 1014.87 1014.87 1014.79 1014.64 1014.41
1005.80 1006.12 1006.49 1006.90 1007.31 1007.72 1008.10 1008.45 1008.74 1008.99 1009.20 1009.39 1009.58 1009.80 1010.05 1010.36 1010.71 1011.12 1011.55 1012.00 1012.44 1012.86 1013.23 1013.55 1013.82 1014.04 1014.23 1014.40 1014.56 1014.72 1014.88 1015.03 1015.15 1015.23 1015.25 1015.19 1015.06 1014.87
1005.00 1005.37 1005.79 1006.26 1006.75 1007.22 1007.67 1008.08 1008.43 1008.72 1008.97 1009.19 1009.39 1009.61 1009.86 1010.14 1010.48 1010.85 1011.27 1011.71 1012.16 1012.59 1013.01 1013.39 1013.74 1014.05 1014.33 1014.59 1014.84 1015.07 1015.28 1015.47 1015.63 1015.74 1015.79 1015.77 1015.68 1015.54
1004.29 1004.68 1005.13 1005.63 1006.15 1006.67 1007.16 1007.60 1007.98 1008.31 1008.59 1008.83 1009.05 1009.28 1009.51 1009.79 1010.10 1010.46 1010.86 1011.30 1011.76 1012.23 1012.70 1013.16 1013.60 1014.02 1014.41 1014.78 1015.13 1015.44 1015.73 1015.98 1016.18 1016.33 1016.42 1016.45 1016.42 1016.35
1003.71 1004.11 1004.57 1005.08 1005.60 1006.12 1006.61 1007.06 1007.45 1007.80 1008.09 1008.35 1008.58 1008.81 1009.06 1009.33 1009.63 1009.98 1010.37 1010.81 1011.29 1011.80 1012.33 1012.87 1013.41 1013.94 1014.45 1014.93 1015.38 1015.79 1016.15 1016.46 1016.71 1016.91 1017.05 1017.13 1017.16 1017.16
1003.29 1003.69 1004.15 1004.64 1005.13 1005.62 1006.08 1006.51 1006.89 1007.23 1007.53 1007.80 1008.05 1008.29 1008.54 1008.81 1009.12 1009.47 1009.86 1010.31 1010.81 1011.35 1011.94 1012.55 1013.17 1013.80 1014.41 1015.00 1015.54 1016.03 1016.46 1016.83 1017.13 1017.37 1017.56 1017.69 1017.79 1017.86
1003.03 1003.43 1003.86 1004.31 1004.76 1005.20 1005.62 1006.00 1006.35 1006.67 1006.97 1007.24 1007.50 1007.75 1008.02 1008.31 1008.62 1008.98 1009.38 1009.83 1010.35 1010.92 1011.54 1012.20 1012.89 1013.59 1014.28 1014.94 1015.55 1016.11 1016.59 1017.01 1017.35 1017.64 1017.86 1018.05 1018.20 1018.34
1002.88 1003.28 1003.69 1004.09 1004.49 1004.86 1005.22 1005.55 1005.86 1006.16 1006.44 1006.71 1006.98 1007.25 1007.54 1007.84 1008.17 1008.53 1008.94 1009.40 1009.92 1010.50 1011.13 1011.82 1012.54 1013.28 1014.01 1014.72 1015.38 1015.97 1016.50 1016.95 1017.33 1017.64 1017.91 1018.14 1018.35 1018.55
1002.81 1003.19 1003.57 1003.93 1004.27 1004.58 1004.88 1005.15 1005.42 1005.69 1005.95 1006.22 1006.50 1006.79 1007.10 1007.42 1007.76 1008.13 1008.54 1009.00 1009.51 1010.09 1010.72 1011.41 1012.13 1012.87 1013.62 1014.34 1015.01 1015.62 1016.17 1016.64 1017.04 1017.39 1017.69 1017.96 1018.22 1018.48
1002.74 1003.11 1003.45 1003.76 1004.05 1004.31 1004.55 1004.78 1005.01 1005.25 1005.50 1005.77 1006.06 1006.36 1006.68 1007.01 1007.37 1007.75 1008.16 1008.61 1009.11 1009.67 1010.28 1010.94 1011.64 1012.37 1013.09 1013.80 1014.47 1015.08 1015.63 1016.11 1016.54 1016.91 1017.24 1017.55 1017.86 1018.16
1002.62 1002.96 1003.27 1003.54 1003.78 1003.99 1004.19 1004.38 1004.59 1004.81 1005.05 1005.31 1005.60 1005.91 1006.24 1006.59 1006.95 1007.33 1007.74 1008.18 1008.67 1009.20 1009.79 1010.42 1011.08 1011.77 1012.46 1013.14 1013.79 1014.39 1014.94 1015.43 1015.87 1016.27 1016.64 1016.99 1017.34 1017.68
1002.41 1002.71 1002.97 1003.21 1003.41 1003.60 1003.77 1003.94 1004.12 1004.32 1004.55 1004.81 1005.10 1005.41 1005.74 1006.09 1006.46 1006.85 1007.26 1007.69 1008.17 1008.68 1009.24 1009.84 1010.46 1011.11 1011.77 1012.41 1013.04 1013.62 1014.17 1014.67 1015.13 1015.57 1015.97 1016.36 1016.75 1017.14
1002.08 1002.33 1002.56 1002.77 1002.94 1003.11 1003.26 1003.42 1003.59 1003.77 1003.99 1004.24 1004.51 1004.81 1005.14 1005.49 1005.86 1006.25 1006.67 1007.11 1007.59 1008.10 1008.64 1009.22 1009.82 1010.44 1011.07 1011.69 1012.29 1012.86 1013.41 1013.92 1014.41 1014.87 1015.32 1015.76 1016.19 1016.61
1001.65 1001.86 1002.05 1002.23 1002.39 1002.55 1002.69 1002.84 1002.99 1003.17 1003.37 1003.59 1003.85 1004.13 1004.45 1004.79 1005.16 1005.56 1005.99 1006.45 1006.94 1007.47 1008.02 1008.59 1009.19 1009.80 1010.40 1011.00 1011.59 1012.16 1012.72 1013.25 1013.76 1014.26 1014.75 1015.22 1015.69 1016.15
1001.16 1001.33 1001.49 1001.65 1001.80 1001.95 1002.09 1002.23 1002.38 1002.53 1002.71 1002.90 1003.13 1003.39 1003.69 1004.02 1004.39 1004.81 1005.26 1005.75 1006.27 1006.83 1007.40 1008.00 1008.60 1009.21 1009.82 1010.41 1011.00 1011.57 1012.12 1012.67 1013.21 1013.74 1014.26 1014.77 1015.28 1015.77
1000.67 1000.80 1000.94 1001.09 1001.23 1001.38 1001.52 1001.65 1001.78 1001.92 1002.06 1002.23 1002.42 1002.64 1002.92 1003.24 1003.61 1004.04 1004.52 1005.05 1005.62 1006.22 1006.84 1007.47 1008.09 1008.72 1009.33 1009.92 1010.50 1011.07 1011.63 1012.19 1012.74 1013.29 1013.84 1014.39 1014.92 1015.43
1000.23 1000.33 1000.45 1000.59 1000.74 1000.88 1001.02 1001.15 1001.27 1001.38 1001.49 1001.61 1001.77 1001.96 1002.21 1002.51 1002.89 1003.33 1003.85 1004.41 1005.03 1005.68 1006.34 1007.01 1007.67 1008.31 1008.92 1009.52 1010.10 1010.66 1011.22 1011.77 1012.34 1012.90 1013.46 1014.02 1014.57 1015.09
999.86 999.94 1000.06 1000.20 1000.35 1000.50 1000.64 1000.76 1000.87 1000.95 1001.03 1001.12 1001.24 1001.40 1001.62 1001.91 1002.28 1002.74 1003.28 1003.88 1004.54 1005.23 1005.94 1006.64 1007.32 1007.97 1008.59 1009.18 1009.75 1010.30 1010.84 1011.39 1011.94 1012.51 1013.07 1013.63 1014.18 1014.69
Thickness
5658 5663 5667 5672 5677 5682 5688 5691 5690 5689 5694 5706 5713 5720 5723 5723 5721 5722 5721 5721 5722 5723 5724 5725 5725 5725 5725 5724 5724 5723 5722 5721 5720 5719 5718 5717 5717 5717
5645 5649 5653 5659 5665 5672 5678 5683 5686 5687 5688 5699 5705 5712 5715 5716 5715 5716 5715 5715 5716 5717 5718 5720 5720 5721 5721 5721 5720 5720 5719 5718 5717 5716 5716 5716 5715 5715
5631 5635 5640 5646 5651 5658 5665 5670 5676 5680 5681 5689 5696 5702 5705 5707 5706 5708 5708 5708 5708 5710 5712 5713 5715 5716 5716 5717 5716 5716 5716 5715 5714 5714 5713 5713 5713 5713
5618 5622 5627 5633 5638 5644 5650 5657 5663 5669 5673 5676 5682 5688 5693 5697 5699 5700 5701 5703 5702 5702 5704 5706 5708 5709 5711 5711 5712 5712 5712 5712 5711 5711 5711 5710 5710 5710
5607 5610 5615 5619 5624 5630 5636 5643 5650 5657 5663 5666 5670 5677 5682 5687 5688 5691 5694 5694 5695 5694 5696 5698 5700 5703 5704 5706 5706 5707 5708 5708 5708 5707 5707 5706 5706 5706
5595 5599 5604 5608 5612 5617 5623 5629 5636 5642 5649 5654 5659 5665 5670 5676 5679 5680 5681 5685 5687 5688 5689 5690 5692 5695 5697 5699 5700 5702 5702 5703 5703 5703 5702 5701 5701 5701
5582 5587 5592 5597 5602 5606 5613 5618 5623 5628 5635 5641 5646 5653 5658 5663 5668 5673 5673 5675 5678 5681 5681 5683 5685 5687 5689 5691 5693 5695 5696 5697 5697 5697 5697 5696 5695 5695
5570 5574 5579 5585 5590 5595 5601 5607 5612 5617 5623 5629 5635 5642 5649 5656 5661 5665 5667 5667 5668 5674 5675 5676 5679 5681 5681 5682 5685 5687 5689 5689 5690 5690 5689 5689 5688 5688
5559 5562 5567 5576 5580 5584 5589 5594 5600 5606 5613 5619 5625 5632 5639 5647 5653 5657 5661 5663 5666 5669 5669 5668 5671 5671 5672 5673 5676 5679 5680 5681 5682 5682 5682 5680 5680 5679
5548 5552 5556 5563 5570 5575 5580 5584 5589 5596 5603 5609 5616 5624 5630 5636 5643 5649 5653 5656 5659 5662 5665 5661 5663 5662 5662 5663 5666 5669 5671 5672 5673 5673 5673 5672 5671 5669
5539 5544 5549 5554 5560 5566 5571 5576 5580 5586 5593 5599 5606 5613 5620 5626 5632 5638 5642 5645 5647 5651 5658 5657 5655 5654 5653 5653 5655 5658 5661 5662 5663 5664 5663 5663 5662 5660
5532 5538 5543 5548 5552 5556 5561 5566 5570 5577 5584 5591 5595 5602 5610 5617 5623 5630 5636 5639 5642 5643 5650 5652 5650 5650 5646 5645 5646 5649 5651 5652 5653 5654 5654 5654 5653 5652
5525 5531 5537 5541 5545 5548 5553 5559 5563 5568 5574 5581 5587 5593 5600 5608 5615 5622 5629 5634 5638 5642 5647 5648 5646 5648 5647 5642 5641 5643 5644 5644 5644 5645 5645 5646 5645 5645
5519 5525 5530 5534 5537 5541 5545 5552 5555 5559 5565 5571 5579 5586 5593 5601 5609 5616 5623 5629 5634 5639 5643 5646 5646 5646 5645 5641 5640 5638 5639 5639 5639 5639 5639 5639 5638 5637
5515 5519 5523 5527 5530 5533 5538 5543 5547 5552 5558 5564 5571 5579 5588 5596 5603 5609 5615 5620 5625 5630 5635 5640 5643 5643 5644 5642 5640 5637 5636 5635 5635 5635 5634 5633 5632 5631
5510 5514 5517 5521 5526 5531 5535 5537 5542 5548 5552 5558 5565 5573 5581 5588 5595 5602 5607 5611 5615 5619 5626 5632 5636 5639 5639 5639 5638 5636 5635 5634 5633 5632 5631 5630 5628 5627
5511 5514 5517 5520 5524 5529 5534 5537 5540 5543 5547 5553 5559 5566 5574 5581 5588 5594 5599 5604 5609 5612 5616 5622 5627 5630 5634 5635 5633 5633 5632 5632 5631 5629 5627 5625 5625 5624
5510 5515 5518 5522 5527 5531 5534 5537 5540 5543 5546 5550 5555 5561 5568 5575 5581 5587 5593 5598 5603 5608 5611 5616 5618 5619 5622 5625 5630 5630 5629 5628 5627 5626 5624 5622 5620 5619
5510 5516 5520 5524 5528 5531 5535 5538 5541 5544 5546 5549 5553 5558 5563 5570 5576 5582 5587 5593 5598 5603 5606 5611 5615 5617 5618 5619 5622 5627 5626 5625 5623 5621 5620 5619 5617 5615
5515 5519 5522 5525 5529 5532 5535 5538 5541 5544 5545 5548 5551 5555 5561 5566 5571 5577 5583 5588 5593 5598 5601 5605 5611 5616 5619 5620 5620 5620 5623 5622 5619 5617 5616 5615 5613 5611
5520 5522 5525 5528 5530 5533 5535 5538 5541 5544 5545 5547 5550 5553 5558 5563 5568 5574 5579 5583 5589 5594 5598 5602 5607 5612 5615 5615 5614 5614 5615 5616 5617 5615 5613 5610 5607 5605
5523 5525 5528 5531 5533 5534 5536 5538 5540 5542 5544 5546 5549 5552 5556 5560 5565 5570 5576 5581 5586 5591 5595 5598 5601 5605 5608 5610 5610 5609 5608 5608 5609 5610 5610 5611 5608 5604
5524 5527 5529 5532 5534 5535 5536 5537 5539 5541 5543 5546 5549 5552 5556 5559 5564 5568 5574 5579 5583 5587 5591 5594 5596 5600 5603 5606 5606 5605 5604 5603 5603 5602 5602 5604 5605 5605